,,,PA_Meas_PMT16A,,PR_Meas_QMR101_102,,RH_Meas_QMH101,,SR_Meas_QMS101,,TA_Meas_QMH101,,GenWind,,GenWind,
date,time,status,PA,status,PR,status,RH,status,SR,status,TA,status,DirAvg,status,SpdAvg,
2011-12-11, 00:00:05,VALID,999.71,VALID,0,VALID,90.5483,VALID,0,VALID,22.7062,VALID,96,VALID,0,
2011-12-11, 00:01:05,VALID,999.687,VALID,0,VALID,90.6246,VALID,0,VALID,22.7062,VALID,96,VALID,0,
2011-12-11, 00:02:05,VALID,999.659,VALID,0,VALID,90.7085,VALID,0,VALID,22.7062,VALID,96,VALID,0,
2011-12-11, 00:03:05,VALID,999.668,VALID,0,VALID,90.8001,VALID,0,VALID,22.7062,VALID,96,VALID,0,
2011-12-11, 00:04:05,VALID,999.658,VALID,0,VALID,90.9298,VALID,0,VALID,22.7257,VALID,96,VALID,0.131641,
2011-12-11, 00:05:05,VALID,999.625,VALID,0,VALID,90.9374,VALID,0,VALID,22.724,VALID,96,VALID,0.143359,
2011-12-11, 00:06:05,VALID,999.597,VALID,0,VALID,90.8917,VALID,0,VALID,22.7647,VALID,96,VALID,0.462109,
2011-12-11, 00:07:05,VALID,999.619,VALID,0,VALID,90.7849,VALID,0,VALID,22.7842,VALID,96,VALID,0.420312,
2011-12-11, 00:08:05,VALID,999.623,VALID,0,VALID,90.7085,VALID,0,VALID,22.8232,VALID,96,VALID,0.382813,
2011-12-11, 00:09:05,VALID,999.593,VALID,0,VALID,90.6475,VALID,0,VALID,22.8427,VALID,96,VALID,0.341406,
2011-12-11, 00:10:05,VALID,999.614,VALID,0,VALID,90.5941,VALID,0,VALID,22.8623,VALID,96,VALID,0.170312,
2011-12-11, 00:11:05,VALID,999.605,VALID,0,VALID,90.5941,VALID,0,VALID,22.8818,VALID,96,VALID,0.257422,
2011-12-11, 00:12:05,VALID,999.599,VALID,0,VALID,90.6017,VALID,0,VALID,22.9013,VALID,96,VALID,0.249219,
2011-12-11, 00:13:05,VALID,999.59,VALID,0,VALID,90.6475,VALID,0,VALID,22.8818,VALID,96,VALID,0.292969,
2011-12-11, 00:14:05,VALID,999.584,VALID,0,VALID,90.6551,VALID,0,VALID,22.8623,VALID,96,VALID,0.428906,
2011-12-11, 00:15:05,VALID,999.586,VALID,0,VALID,90.6857,VALID,0,VALID,22.8623,VALID,96,VALID,0.471875,
2011-12-11, 00:16:05,VALID,999.598,VALID,0,VALID,90.762,VALID,0,VALID,22.8818,VALID,94,VALID,0.743359,
2011-12-11, 00:17:05,VALID,999.6,VALID,0,VALID,90.8001,VALID,0.104696,VALID,22.9013,VALID,74,VALID,0.909766,
2011-12-11, 00:18:05,VALID,999.599,VALID,0,VALID,90.6704,VALID,0,VALID,22.9013,VALID,74,VALID,0.997656,
2011-12-11, 00:19:05,VALID,999.615,VALID,0,VALID,90.4873,VALID,0,VALID,22.9013,VALID,74,VALID,0.83125,
2011-12-11, 00:20:05,VALID,999.575,VALID,0,VALID,90.617,VALID,0,VALID,22.9013,VALID,74,VALID,0.666406,
2011-12-11, 00:21:05,VALID,999.59,VALID,0,VALID,90.7009,VALID,0.104696,VALID,22.9013,VALID,74,VALID,0.482422,
2011-12-11, 00:22:05,VALID,999.562,VALID,0,VALID,90.7925,VALID,0.104696,VALID,22.88,VALID,74,VALID,0.447656,
2011-12-11, 00:23:05,VALID,999.57,VALID,0,VALID,90.8306,VALID,0,VALID,22.8818,VALID,74,VALID,0.446094,
2011-12-11, 00:24:05,VALID,999.549,VALID,0,VALID,90.6704,VALID,0,VALID,22.8623,VALID,74,VALID,0.414063,
2011-12-11, 00:25:05,VALID,999.523,VALID,0,VALID,90.4644,VALID,0,VALID,22.8232,VALID,74,VALID,0.113672,
2011-12-11, 00:26:05,VALID,999.528,VALID,0,VALID,90.4491,VALID,0,VALID,22.8037,VALID,74,VALID,0,
2011-12-11, 00:27:05,VALID,999.474,VALID,0,VALID,90.5788,VALID,0,VALID,22.7647,VALID,74,VALID,0,
2011-12-11, 00:28:05,VALID,999.461,VALID,0,VALID,90.8077,VALID,0,VALID,22.7257,VALID,74,VALID,0,
2011-12-11, 00:29:05,VALID,999.428,VALID,0,VALID,90.9222,VALID,0,VALID,22.6655,VALID,74,VALID,0,
2011-12-11, 00:30:05,VALID,999.443,VALID,0,VALID,91.1434,VALID,0,VALID,22.6282,VALID,74,VALID,0,
2011-12-11, 00:31:05,VALID,999.388,VALID,0,VALID,91.3494,VALID,0,VALID,22.6087,VALID,74,VALID,0,
2011-12-11, 00:32:05,VALID,999.383,VALID,0,VALID,91.4334,VALID,0,VALID,22.5484,VALID,74,VALID,0,
2011-12-11, 00:33:05,VALID,999.385,VALID,0,VALID,91.5478,VALID,0,VALID,22.5111,VALID,74,VALID,0,
2011-12-11, 00:34:05,VALID,999.392,VALID,0,VALID,91.6928,VALID,0,VALID,22.4721,VALID,74,VALID,0,
2011-12-11, 00:35:05,VALID,999.376,VALID,0,VALID,91.8072,VALID,0,VALID,22.4331,VALID,74,VALID,0,
2011-12-11, 00:36:05,VALID,999.368,VALID,0,VALID,91.9217,VALID,0,VALID,22.4136,VALID,74,VALID,0,
2011-12-11, 00:37:05,VALID,999.352,VALID,0,VALID,92.0209,VALID,0,VALID,22.3339,VALID,74,VALID,0,
2011-12-11, 00:38:05,VALID,999.347,VALID,0,VALID,92.0971,VALID,0,VALID,22.3356,VALID,74,VALID,0,
2011-12-11, 00:39:05,VALID,999.372,VALID,0,VALID,92.1734,VALID,0,VALID,22.2771,VALID,74,VALID,0,
2011-12-11, 00:40:05,VALID,999.379,VALID,0,VALID,92.204,VALID,0,VALID,22.2788,VALID,74,VALID,0,
2011-12-11, 00:41:05,VALID,999.384,VALID,0,VALID,92.3337,VALID,0,VALID,22.2592,VALID,74,VALID,0,
2011-12-11, 00:42:05,VALID,999.394,VALID,0,VALID,92.4557,VALID,0,VALID,22.2397,VALID,74,VALID,0,
2011-12-11, 00:43:05,VALID,999.396,VALID,0,VALID,92.5778,VALID,0,VALID,22.2186,VALID,74,VALID,0,
2011-12-11, 00:44:05,VALID,999.393,VALID,0,VALID,92.7075,VALID,0,VALID,22.2397,VALID,74,VALID,0,
2011-12-11, 00:45:05,VALID,999.384,VALID,0,VALID,92.822,VALID,0,VALID,22.2186,VALID,74,VALID,0,
2011-12-11, 00:46:05,VALID,999.401,VALID,0,VALID,92.944,VALID,0,VALID,22.2592,VALID,74,VALID,0.0796875,
2011-12-11, 00:47:05,VALID,999.364,VALID,0,VALID,93.0051,VALID,0,VALID,22.2788,VALID,74,VALID,0,
2011-12-11, 00:48:05,VALID,999.384,VALID,0,VALID,93.0661,VALID,0,VALID,22.2983,VALID,74,VALID,0.486328,
2011-12-11, 00:49:05,VALID,999.361,VALID,0,VALID,93.0966,VALID,0,VALID,22.3178,VALID,87,VALID,0.566016,
2011-12-11, 00:50:05,VALID,999.352,VALID,0,VALID,93.1271,VALID,0,VALID,22.3356,VALID,87,VALID,0.520703,
2011-12-11, 00:51:05,VALID,999.35,VALID,0,VALID,93.0814,VALID,0,VALID,22.3958,VALID,87,VALID,0.510938,
2011-12-11, 00:52:05,VALID,999.357,VALID,0,VALID,93.028,VALID,0,VALID,22.4153,VALID,87,VALID,0.564062,
2011-12-11, 00:53:05,VALID,999.316,VALID,0,VALID,92.8983,VALID,0,VALID,22.4526,VALID,90,VALID,0.617578,
2011-12-11, 00:54:05,VALID,999.327,VALID,0,VALID,92.738,VALID,0,VALID,22.4721,VALID,90,VALID,0.786719,
2011-12-11, 00:55:05,VALID,999.326,VALID,0,VALID,92.5244,VALID,0,VALID,22.5128,VALID,90,VALID,0.580078,
2011-12-11, 00:56:05,VALID,999.276,VALID,0,VALID,92.3947,VALID,0,VALID,22.5323,VALID,90,VALID,0.36875,
2011-12-11, 00:57:05,VALID,999.258,VALID,0,VALID,92.3108,VALID,0,VALID,22.5323,VALID,90,VALID,0.337109,
2011-12-11, 00:58:05,VALID,999.205,VALID,0,VALID,92.265,VALID,0,VALID,22.5128,VALID,90,VALID,0.303125,
2011-12-11, 00:59:05,VALID,999.2,VALID,0,VALID,92.265,VALID,0,VALID,22.4916,VALID,90,VALID,0.135156,
2011-12-11, 01:00:05,VALID,999.201,VALID,0,VALID,92.2421,VALID,0,VALID,22.4738,VALID,90,VALID,0.105859,
2011-12-11, 01:01:05,VALID,999.233,VALID,0,VALID,92.1811,VALID,0,VALID,22.4543,VALID,90,VALID,0.128906,
2011-12-11, 01:02:05,VALID,999.203,VALID,0,VALID,92.0895,VALID,0,VALID,22.3746,VALID,90,VALID,0.121875,
2011-12-11, 01:03:05,VALID,999.193,VALID,0,VALID,91.998,VALID,0,VALID,22.3373,VALID,90,VALID,0.3375,
2011-12-11, 01:04:05,VALID,999.186,VALID,0,VALID,92.1429,VALID,0,VALID,22.2771,VALID,90,VALID,0.402734,
2011-12-11, 01:05:05,VALID,999.156,VALID,0,VALID,92.41,VALID,0,VALID,22.2788,VALID,90,VALID,0.394141,
2011-12-11, 01:06:05,VALID,999.123,VALID,0,VALID,92.6007,VALID,0,VALID,22.2397,VALID,90,VALID,0.392578,
2011-12-11, 01:07:05,VALID,999.12,VALID,0,VALID,92.7685,VALID,0,VALID,22.2186,VALID,90,VALID,0.415625,
2011-12-11, 01:08:05,VALID,999.092,VALID,0,VALID,92.8754,VALID,0,VALID,22.1812,VALID,90,VALID,0.478125,
2011-12-11, 01:09:05,VALID,999.084,VALID,0,VALID,92.9822,VALID,0,VALID,22.121,VALID,90,VALID,0.376563,
2011-12-11, 01:10:05,VALID,999.085,VALID,0,VALID,93.0737,VALID,0,VALID,22.1032,VALID,90,VALID,0.441406,
2011-12-11, 01:11:05,VALID,999.064,VALID,0,VALID,93.2187,VALID,0,VALID,22.082,VALID,90,VALID,0.529297,
2011-12-11, 01:12:05,VALID,999.074,VALID,0,VALID,93.295,VALID,0,VALID,22.0837,VALID,90,VALID,0.414844,
2011-12-11, 01:13:05,VALID,999.065,VALID,0,VALID,93.3408,VALID,0,VALID,22.0235,VALID,90,VALID,0.4875,
2011-12-11, 01:14:05,VALID,999.057,VALID,0,VALID,93.4476,VALID,0,VALID,22.0447,VALID,90,VALID,0.519141,
2011-12-11, 01:15:05,VALID,999.052,VALID,0,VALID,93.5468,VALID,0,VALID,22.043,VALID,90,VALID,0.564062,
2011-12-11, 01:16:05,VALID,999.049,VALID,0,VALID,93.6383,VALID,0,VALID,22.082,VALID,90,VALID,0.556641,
2011-12-11, 01:17:05,VALID,999.023,VALID,0,VALID,93.707,VALID,0,VALID,22.082,VALID,90,VALID,0.638281,
2011-12-11, 01:18:05,VALID,999.026,VALID,0,VALID,93.7146,VALID,0,VALID,22.082,VALID,67,VALID,0.729688,
2011-12-11, 01:19:05,VALID,998.997,VALID,0,VALID,93.6536,VALID,0,VALID,22.0837,VALID,60,VALID,0.783984,
2011-12-11, 01:20:05,VALID,999.005,VALID,0,VALID,93.6154,VALID,0,VALID,22.0447,VALID,49,VALID,0.843359,
2011-12-11, 01:21:05,VALID,999.009,VALID,0,VALID,93.6688,VALID,0,VALID,22.0642,VALID,49,VALID,0.810547,
2011-12-11, 01:22:05,VALID,999.016,VALID,0,VALID,93.7146,VALID,0,VALID,22.0642,VALID,49,VALID,0.863672,
2011-12-11, 01:23:05,VALID,999,VALID,0,VALID,93.7299,VALID,0,VALID,22.0447,VALID,49,VALID,0.9,
2011-12-11, 01:24:05,VALID,998.981,VALID,0,VALID,93.7299,VALID,0,VALID,22.0252,VALID,49,VALID,0.777344,
2011-12-11, 01:25:05,VALID,998.977,VALID,0,VALID,93.7223,VALID,0,VALID,21.9862,VALID,49,VALID,0.686719,
2011-12-11, 01:26:05,VALID,999.007,VALID,0,VALID,93.7146,VALID,0,VALID,21.9455,VALID,49,VALID,0.604688,
2011-12-11, 01:27:05,VALID,999.03,VALID,0,VALID,93.6917,VALID,0,VALID,21.9082,VALID,49,VALID,0.578516,
2011-12-11, 01:28:05,VALID,999.018,VALID,0,VALID,93.6917,VALID,0,VALID,21.848,VALID,49,VALID,0.491797,
2011-12-11, 01:29:05,VALID,999.003,VALID,0,VALID,93.6688,VALID,0,VALID,21.809,VALID,49,VALID,0.509375,
2011-12-11, 01:30:05,VALID,999.004,VALID,0,VALID,93.6994,VALID,0,VALID,21.8301,VALID,49,VALID,0.51875,
2011-12-11, 01:31:05,VALID,999.038,VALID,0,VALID,93.7833,VALID,0,VALID,21.8301,VALID,49,VALID,0.580078,
2011-12-11, 01:32:05,VALID,998.985,VALID,0,VALID,93.852,VALID,0,VALID,21.8301,VALID,49,VALID,0.381641,
2011-12-11, 01:33:05,VALID,998.986,VALID,0,VALID,93.8901,VALID,0,VALID,21.8106,VALID,49,VALID,0,
2011-12-11, 01:34:05,VALID,999.002,VALID,0,VALID,93.9054,VALID,0,VALID,21.8106,VALID,49,VALID,0,
2011-12-11, 01:35:05,VALID,999.003,VALID,0,VALID,93.9206,VALID,0,VALID,21.7911,VALID,49,VALID,0,
2011-12-11, 01:36:05,VALID,998.984,VALID,0,VALID,93.9359,VALID,0,VALID,21.7505,VALID,49,VALID,0,
2011-12-11, 01:37:05,VALID,998.979,VALID,0,VALID,93.9511,VALID,0,VALID,21.7505,VALID,49,VALID,0,
2011-12-11, 01:38:05,VALID,998.97,VALID,0,VALID,93.974,VALID,0,VALID,21.7716,VALID,49,VALID,0,
2011-12-11, 01:39:05,VALID,998.921,VALID,0,VALID,93.9969,VALID,0,VALID,21.7505,VALID,49,VALID,0,
2011-12-11, 01:40:05,VALID,998.908,VALID,0,VALID,94.0274,VALID,0,VALID,21.7716,VALID,49,VALID,0.0972656,
2011-12-11, 01:41:05,VALID,998.938,VALID,0,VALID,94.0885,VALID,0,VALID,21.7911,VALID,49,VALID,0.417969,
2011-12-11, 01:42:05,VALID,998.886,VALID,0,VALID,94.1037,VALID,0,VALID,21.8301,VALID,49,VALID,0.558984,
2011-12-11, 01:43:05,VALID,998.885,VALID,0,VALID,94.1419,VALID,0,VALID,21.8692,VALID,79,VALID,0.641797,
2011-12-11, 01:44:05,VALID,998.879,VALID,0,VALID,94.1419,VALID,0,VALID,21.9082,VALID,88,VALID,0.673047,
2011-12-11, 01:45:05,VALID,998.886,VALID,0,VALID,94.1571,VALID,0,VALID,21.9667,VALID,88,VALID,0.584375,
2011-12-11, 01:46:05,VALID,998.83,VALID,0,VALID,94.1266,VALID,0,VALID,22.0057,VALID,88,VALID,0.43125,
2011-12-11, 01:47:05,VALID,998.824,VALID,0,VALID,94.1037,VALID,0,VALID,22.0235,VALID,88,VALID,0.455859,
2011-12-11, 01:48:05,VALID,998.802,VALID,0,VALID,94.058,VALID,0,VALID,22.0447,VALID,88,VALID,0.45,
2011-12-11, 01:49:05,VALID,998.777,VALID,0,VALID,94.0122,VALID,0,VALID,22.0625,VALID,88,VALID,0.442187,
2011-12-11, 01:50:05,VALID,998.77,VALID,0,VALID,93.9435,VALID,0,VALID,22.1032,VALID,88,VALID,0.412109,
2011-12-11, 01:51:05,VALID,998.752,VALID,0,VALID,93.9054,VALID,0,VALID,22.1227,VALID,88,VALID,0.524609,
2011-12-11, 01:52:05,VALID,998.766,VALID,0,VALID,93.8748,VALID,0,VALID,22.1422,VALID,88,VALID,0.616016,
2011-12-11, 01:53:05,VALID,998.727,VALID,0,VALID,93.8138,VALID,0,VALID,22.1617,VALID,88,VALID,0.817969,
2011-12-11, 01:54:05,VALID,998.737,VALID,0,VALID,93.707,VALID,0,VALID,22.199,VALID,88,VALID,0.507813,
2011-12-11, 01:55:05,VALID,998.737,VALID,0,VALID,93.5926,VALID,0,VALID,22.2186,VALID,88,VALID,0.401172,
2011-12-11, 01:56:05,VALID,998.71,VALID,0,VALID,93.4628,VALID,0,VALID,22.2576,VALID,88,VALID,0.198437,
2011-12-11, 01:57:05,VALID,998.698,VALID,0,VALID,93.3179,VALID,0,VALID,22.2576,VALID,88,VALID,0.339844,
2011-12-11, 01:58:05,VALID,998.674,VALID,0,VALID,93.1958,VALID,0,VALID,22.2771,VALID,88,VALID,0.263281,
2011-12-11, 01:59:05,VALID,998.647,VALID,0,VALID,93.0661,VALID,0,VALID,22.2966,VALID,88,VALID,0.383203,
2011-12-11, 02:00:05,VALID,998.64,VALID,0,VALID,92.9745,VALID,0,VALID,22.3161,VALID,88,VALID,0.356641,
2011-12-11, 02:01:05,VALID,998.603,VALID,0,VALID,92.8754,VALID,0,VALID,22.3161,VALID,88,VALID,0.396484,
2011-12-11, 02:02:05,VALID,998.607,VALID,0,VALID,92.7838,VALID,0,VALID,22.3356,VALID,88,VALID,0.396484,
2011-12-11, 02:03:05,VALID,998.565,VALID,0,VALID,92.7075,VALID,0,VALID,22.3551,VALID,88,VALID,0.412109,
2011-12-11, 02:04:05,VALID,998.564,VALID,0,VALID,92.6923,VALID,0,VALID,22.3356,VALID,88,VALID,0.505859,
2011-12-11, 02:05:05,VALID,998.568,VALID,0,VALID,92.6541,VALID,0,VALID,22.3339,VALID,88,VALID,0.589844,
2011-12-11, 02:06:05,VALID,998.571,VALID,0,VALID,92.5931,VALID,0,VALID,22.3746,VALID,88,VALID,0.467969,
2011-12-11, 02:07:05,VALID,998.588,VALID,0,VALID,92.5702,VALID,0,VALID,22.3763,VALID,88,VALID,0.429688,
2011-12-11, 02:08:05,VALID,998.577,VALID,0,VALID,92.5702,VALID,0,VALID,22.3746,VALID,88,VALID,0,
2011-12-11, 02:09:05,VALID,998.578,VALID,0,VALID,92.6388,VALID,0.104696,VALID,22.3746,VALID,88,VALID,0.242578,
2011-12-11, 02:10:05,VALID,998.586,VALID,0,VALID,92.6465,VALID,0,VALID,22.3551,VALID,88,VALID,0.0613281,
2011-12-11, 02:11:05,VALID,998.588,VALID,0,VALID,92.6236,VALID,0,VALID,22.3551,VALID,88,VALID,0.021875,
2011-12-11, 02:12:05,VALID,998.597,VALID,0,VALID,92.5854,VALID,0,VALID,22.3356,VALID,88,VALID,0,
2011-12-11, 02:13:05,VALID,998.594,VALID,0,VALID,92.5473,VALID,0,VALID,22.3161,VALID,88,VALID,0.0359375,
2011-12-11, 02:14:05,VALID,998.601,VALID,0,VALID,92.4252,VALID,0,VALID,22.2966,VALID,88,VALID,0.247266,
2011-12-11, 02:15:05,VALID,998.611,VALID,0,VALID,92.3566,VALID,0,VALID,22.3161,VALID,88,VALID,0.275391,
2011-12-11, 02:16:05,VALID,998.644,VALID,0,VALID,92.1963,VALID,0,VALID,22.3339,VALID,93,VALID,0.629687,
2011-12-11, 02:17:05,VALID,998.658,VALID,0,VALID,92.0132,VALID,0.104696,VALID,22.3534,VALID,102,VALID,0.604297,
2011-12-11, 02:18:05,VALID,998.638,VALID,0,VALID,91.8454,VALID,0.104696,VALID,22.3941,VALID,102,VALID,0.645703,
2011-12-11, 02:19:05,VALID,998.641,VALID,0,VALID,91.6623,VALID,0,VALID,22.4136,VALID,102,VALID,0.549609,
2011-12-11, 02:20:05,VALID,998.63,VALID,0,VALID,91.502,VALID,0,VALID,22.4526,VALID,102,VALID,0.508203,
2011-12-11, 02:21:05,VALID,998.635,VALID,0,VALID,91.4486,VALID,0.104696,VALID,22.4314,VALID,102,VALID,0.416016,
2011-12-11, 02:22:05,VALID,998.616,VALID,0,VALID,91.441,VALID,0.104696,VALID,22.4916,VALID,102,VALID,0.176563,
2011-12-11, 02:23:04,VALID,998.603,VALID,0,VALID,91.4486,VALID,0,VALID,22.4704,VALID,102,VALID,0.267969,
2011-12-11, 02:24:04,VALID,998.598,VALID,0,VALID,91.441,VALID,0,VALID,22.4933,VALID,102,VALID,0.0910156,
2011-12-11, 02:25:04,VALID,998.572,VALID,0,VALID,91.38,VALID,0,VALID,22.5128,VALID,102,VALID,0.0320312,
2011-12-11, 02:26:04,VALID,998.573,VALID,0,VALID,91.4334,VALID,0,VALID,22.5128,VALID,102,VALID,0.423047,
2011-12-11, 02:27:04,VALID,998.551,VALID,0,VALID,91.3952,VALID,0,VALID,22.5323,VALID,102,VALID,0.642969,
2011-12-11, 02:28:04,VALID,998.527,VALID,0,VALID,91.3037,VALID,0,VALID,22.5323,VALID,102,VALID,0.508203,
2011-12-11, 02:29:04,VALID,998.508,VALID,0,VALID,91.2197,VALID,0,VALID,22.5714,VALID,102,VALID,0.24375,
2011-12-11, 02:30:04,VALID,998.486,VALID,0,VALID,91.0748,VALID,0,VALID,22.5909,VALID,106,VALID,0.371875,
2011-12-11, 02:31:04,VALID,998.486,VALID,0,VALID,90.9756,VALID,0,VALID,22.6104,VALID,106,VALID,0.220313,
2011-12-11, 02:32:04,VALID,998.48,VALID,0,VALID,90.884,VALID,0,VALID,22.6104,VALID,106,VALID,0.398047,
2011-12-11, 02:33:04,VALID,998.489,VALID,0,VALID,90.8535,VALID,0,VALID,22.6087,VALID,106,VALID,0.360156,
2011-12-11, 02:34:04,VALID,998.488,VALID,0,VALID,90.8383,VALID,0,VALID,22.6087,VALID,121,VALID,0.608203,
2011-12-11, 02:35:04,VALID,998.476,VALID,0,VALID,90.7391,VALID,0,VALID,22.6299,VALID,118,VALID,0.803125,
2011-12-11, 02:36:04,VALID,998.466,VALID,0,VALID,90.7009,VALID,0,VALID,22.6477,VALID,117,VALID,0.495703,
2011-12-11, 02:37:04,VALID,998.47,VALID,0,VALID,90.6551,VALID,0,VALID,22.6672,VALID,114,VALID,0.785547,
2011-12-11, 02:38:04,VALID,998.456,VALID,0,VALID,90.7085,VALID,0,VALID,22.6672,VALID,114,VALID,0.637109,
2011-12-11, 02:39:04,VALID,998.436,VALID,0,VALID,90.7009,VALID,0,VALID,22.6884,VALID,114,VALID,0.488672,
2011-12-11, 02:40:04,VALID,998.44,VALID,0,VALID,90.7925,VALID,0,VALID,22.6672,VALID,114,VALID,0.749219,
2011-12-11, 02:41:04,VALID,998.467,VALID,0,VALID,90.8764,VALID,0,VALID,22.6672,VALID,102,VALID,0.702344,
2011-12-11, 02:42:04,VALID,998.452,VALID,0,VALID,90.9298,VALID,0,VALID,22.6672,VALID,98,VALID,0.885547,
2011-12-11, 02:43:04,VALID,998.437,VALID,0,VALID,90.9374,VALID,0,VALID,22.6884,VALID,98,VALID,0.8125,
2011-12-11, 02:44:04,VALID,998.414,VALID,0,VALID,90.968,VALID,0,VALID,22.6884,VALID,90,VALID,0.857422,
2011-12-11, 02:45:04,VALID,998.399,VALID,0,VALID,90.9756,VALID,0,VALID,22.6884,VALID,86,VALID,0.771875,
2011-12-11, 02:46:04,VALID,998.381,VALID,0,VALID,90.9298,VALID,0,VALID,22.6672,VALID,84,VALID,0.846094,
2011-12-11, 02:47:04,VALID,998.4,VALID,0,VALID,90.7772,VALID,0,VALID,22.6477,VALID,81,VALID,0.957812,
2011-12-11, 02:48:04,VALID,998.425,VALID,0,VALID,90.6323,VALID,0,VALID,22.6689,VALID,80,VALID,0.714844,
2011-12-11, 02:49:04,VALID,998.429,VALID,0,VALID,90.4797,VALID,0,VALID,22.6494,VALID,68,VALID,0.705859,
2011-12-11, 02:50:04,VALID,998.446,VALID,0,VALID,90.3881,VALID,0,VALID,22.6477,VALID,68,VALID,0.445313,
2011-12-11, 02:51:04,VALID,998.453,VALID,0,VALID,90.4415,VALID,0,VALID,22.6689,VALID,68,VALID,0.0171875,
2011-12-11, 02:52:04,VALID,998.447,VALID,0,VALID,90.6704,VALID,0,VALID,22.6494,VALID,68,VALID,0.231641,
2011-12-11, 02:53:04,VALID,998.443,VALID,0,VALID,90.9451,VALID,0,VALID,22.6299,VALID,68,VALID,0.139453,
2011-12-11, 02:54:04,VALID,998.415,VALID,0,VALID,91.1434,VALID,0,VALID,22.5874,VALID,68,VALID,0.0046875,
2011-12-11, 02:55:04,VALID,998.415,VALID,0,VALID,91.2884,VALID,0,VALID,22.5892,VALID,68,VALID,0,
2011-12-11, 02:56:04,VALID,998.388,VALID,0,VALID,91.4486,VALID,0,VALID,22.5696,VALID,68,VALID,0,
2011-12-11, 02:57:04,VALID,998.381,VALID,0,VALID,91.5783,VALID,0,VALID,22.5501,VALID,68,VALID,0,
2011-12-11, 02:58:04,VALID,998.353,VALID,0,VALID,91.647,VALID,0,VALID,22.5306,VALID,68,VALID,0,
2011-12-11, 02:59:04,VALID,998.338,VALID,0,VALID,91.7385,VALID,0,VALID,22.5111,VALID,68,VALID,0,
2011-12-11, 03:00:04,VALID,998.335,VALID,0,VALID,91.7843,VALID,0.104696,VALID,22.5111,VALID,68,VALID,0,
2011-12-11, 03:01:04,VALID,998.308,VALID,0,VALID,91.7843,VALID,0,VALID,22.4704,VALID,68,VALID,0,
2011-12-11, 03:02:04,VALID,998.299,VALID,0,VALID,91.8301,VALID,0,VALID,22.4314,VALID,68,VALID,0,
2011-12-11, 03:03:04,VALID,998.283,VALID,0,VALID,91.914,VALID,0,VALID,22.4331,VALID,68,VALID,0,
2011-12-11, 03:04:04,VALID,998.283,VALID,0,VALID,91.8759,VALID,0.104696,VALID,22.4331,VALID,68,VALID,0,
2011-12-11, 03:05:04,VALID,998.299,VALID,0,VALID,91.8454,VALID,0,VALID,22.4331,VALID,68,VALID,0,
2011-12-11, 03:06:04,VALID,998.312,VALID,0,VALID,91.8606,VALID,0,VALID,22.4526,VALID,68,VALID,0.313672,
2011-12-11, 03:07:04,VALID,998.321,VALID,0,VALID,91.7691,VALID,0,VALID,22.4721,VALID,68,VALID,0.322266,
2011-12-11, 03:08:04,VALID,998.296,VALID,0,VALID,91.6165,VALID,0.104696,VALID,22.4916,VALID,68,VALID,0.460547,
2011-12-11, 03:09:04,VALID,998.324,VALID,0,VALID,91.4791,VALID,0,VALID,22.5306,VALID,95,VALID,0.871484,
2011-12-11, 03:10:04,VALID,998.341,VALID,0,VALID,91.2503,VALID,0,VALID,22.5501,VALID,95,VALID,0.608203,
2011-12-11, 03:11:04,VALID,998.33,VALID,0,VALID,91.0519,VALID,0,VALID,22.5696,VALID,95,VALID,0.660156,
2011-12-11, 03:12:04,VALID,998.337,VALID,0,VALID,90.968,VALID,0,VALID,22.5696,VALID,95,VALID,0.564453,
2011-12-11, 03:13:04,VALID,998.352,VALID,0,VALID,90.8993,VALID,0,VALID,22.6299,VALID,95,VALID,0.4125,
2011-12-11, 03:14:04,VALID,998.333,VALID,0,VALID,90.9527,VALID,0,VALID,22.5892,VALID,95,VALID,0,
2011-12-11, 03:15:04,VALID,998.34,VALID,0,VALID,91.0519,VALID,0,VALID,22.5892,VALID,95,VALID,0,
2011-12-11, 03:16:04,VALID,998.339,VALID,0,VALID,91.0824,VALID,0,VALID,22.5696,VALID,95,VALID,0,
2011-12-11, 03:17:04,VALID,998.355,VALID,0,VALID,91.1358,VALID,0,VALID,22.5501,VALID,95,VALID,0,
2011-12-11, 03:18:04,VALID,998.385,VALID,0,VALID,91.4181,VALID,0,VALID,22.5306,VALID,95,VALID,0.608984,
2011-12-11, 03:19:04,VALID,998.389,VALID,0,VALID,91.6394,VALID,0,VALID,22.4721,VALID,69,VALID,0.722656,
2011-12-11, 03:20:04,VALID,998.379,VALID,0,VALID,91.9217,VALID,0,VALID,22.4331,VALID,57,VALID,0.780078,
2011-12-11, 03:21:04,VALID,998.384,VALID,0,VALID,92.1734,VALID,0,VALID,22.4136,VALID,57,VALID,0.857813,
2011-12-11, 03:22:04,VALID,998.386,VALID,0,VALID,92.3337,VALID,0.104696,VALID,22.3534,VALID,54,VALID,0.944531,
2011-12-11, 03:23:04,VALID,998.39,VALID,0,VALID,92.4481,VALID,0,VALID,22.3551,VALID,53,VALID,0.947266,
2011-12-11, 03:24:04,VALID,998.397,VALID,0,VALID,92.616,VALID,0,VALID,22.3161,VALID,53,VALID,0.877734,
2011-12-11, 03:25:04,VALID,998.418,VALID,0,VALID,92.7228,VALID,0,VALID,22.2771,VALID,53,VALID,0.755078,
2011-12-11, 03:26:04,VALID,998.397,VALID,0,VALID,92.7991,VALID,0,VALID,22.2381,VALID,53,VALID,0.628516,
2011-12-11, 03:27:04,VALID,998.428,VALID,0,VALID,92.7991,VALID,0,VALID,22.199,VALID,53,VALID,0.527734,
2011-12-11, 03:28:04,VALID,998.398,VALID,0,VALID,92.8296,VALID,0,VALID,22.1405,VALID,53,VALID,0.391797,
2011-12-11, 03:29:04,VALID,998.389,VALID,0,VALID,92.8906,VALID,0,VALID,22.1015,VALID,53,VALID,0.118359,
2011-12-11, 03:30:04,VALID,998.394,VALID,0,VALID,92.944,VALID,0,VALID,22.082,VALID,53,VALID,0,
2011-12-11, 03:31:04,VALID,998.38,VALID,0,VALID,93.0127,VALID,0,VALID,22.043,VALID,53,VALID,0,
2011-12-11, 03:32:04,VALID,998.373,VALID,0,VALID,93.0508,VALID,0,VALID,22.004,VALID,53,VALID,0,
2011-12-11, 03:33:04,VALID,998.364,VALID,0,VALID,93.0966,VALID,0,VALID,21.9633,VALID,53,VALID,0,
2011-12-11, 03:34:04,VALID,998.376,VALID,0,VALID,93.2111,VALID,0,VALID,21.965,VALID,53,VALID,0.271875,
2011-12-11, 03:35:04,VALID,998.367,VALID,0,VALID,93.3408,VALID,0,VALID,21.965,VALID,53,VALID,0,
2011-12-11, 03:36:04,VALID,998.361,VALID,0,VALID,93.4476,VALID,0.104696,VALID,21.9438,VALID,53,VALID,0,
2011-12-11, 03:37:04,VALID,998.346,VALID,0,VALID,93.5926,VALID,0,VALID,21.965,VALID,53,VALID,0,
2011-12-11, 03:38:04,VALID,998.372,VALID,0,VALID,93.6841,VALID,0,VALID,21.9633,VALID,53,VALID,0,
2011-12-11, 03:39:04,VALID,998.379,VALID,0,VALID,93.7528,VALID,0,VALID,21.9862,VALID,53,VALID,0,
2011-12-11, 03:40:04,VALID,998.37,VALID,0,VALID,93.8214,VALID,0,VALID,21.9862,VALID,53,VALID,0,
2011-12-11, 03:41:04,VALID,998.379,VALID,0,VALID,93.8748,VALID,0,VALID,21.9667,VALID,53,VALID,0,
2011-12-11, 03:42:04,VALID,998.439,VALID,0,VALID,93.9283,VALID,0,VALID,21.9862,VALID,53,VALID,0,
2011-12-11, 03:43:04,VALID,998.419,VALID,0,VALID,93.9359,VALID,0,VALID,21.9667,VALID,53,VALID,0,
2011-12-11, 03:44:04,VALID,998.432,VALID,0,VALID,93.9588,VALID,0,VALID,21.926,VALID,53,VALID,0,
2011-12-11, 03:45:04,VALID,998.483,VALID,0,VALID,93.9664,VALID,0,VALID,21.9277,VALID,53,VALID,0,
2011-12-11, 03:46:04,VALID,998.464,VALID,0,VALID,93.974,VALID,0,VALID,21.9082,VALID,53,VALID,0,
2011-12-11, 03:47:04,VALID,998.436,VALID,0,VALID,94.0198,VALID,0,VALID,21.8887,VALID,53,VALID,0,
2011-12-11, 03:48:04,VALID,998.446,VALID,0,VALID,94.0427,VALID,0,VALID,21.8887,VALID,53,VALID,0,
2011-12-11, 03:49:04,VALID,998.452,VALID,0,VALID,94.0656,VALID,0,VALID,21.9082,VALID,53,VALID,0,
2011-12-11, 03:50:04,VALID,998.468,VALID,0,VALID,94.1037,VALID,0,VALID,21.9277,VALID,53,VALID,0,